Flag for Ecuador Weather past 2 weeks in Quito, Ecuador

Now
57 °F

Broken clouds.


Feels Like: 57 °F
Forecast: N/A
Wind: 5 mph from Northeast

Location: Latacunga Airport

Current Time: Apr 19, 2015 at 6:18:03 PM

Latest Report: Apr 19, 2015 at 6:00 PM


Visibility: N/A

Pressure: 30.36 "Hg

Humidity: 82%

Dew point: 52 °F

Location of QuitoLocation

Historic Weather in Quito — Graph

°F

Quito temperature yesterday

Maximum temperature yesterday: 66 °F (at 1:00 PM)
Minimum temperature yesterday: 46 °F (at 4:00 AM)
Average temperature yesterday: 54 °F

Past Weeks' High & Low Weather Summary

 TemperatureHumidityPressure
High84 °F (Apr 9, 11:00 AM)100% (Apr 5, 11:00 PM)30.51 "Hg (Apr 5, 11:00 PM)
Low46 °F (Apr 15, 7:00 AM)46% (Apr 19, 1:00 PM)29.83 "Hg (Apr 9, 11:00 AM)
Average56 °F83%30.40 "Hg
* Reported Apr 4 5:00 PM — Apr 19 4:00 PM, Quito, Weather by CustomWeather, © 2015

Note: Actual official high and low records may vary slightly from our data, if they occured in-between our weather recording intervals... More about our weather records

Advertising

Quito weather history for previous 24 hours

 ConditionsComfort  
Time TempWeatherWind HumidityBarometerVisibility
4:00 PM
Sun, Apr 19
63 °FScattered showers. Broken clouds.5 mph68%30.33 "HgN/A
3:00 PM61 °FScattered showers. Broken clouds.2 mph72%30.33 "HgN/A
1:00 PM68 °FScattered clouds.7 mph46%30.39 "HgN/A
12:00 PM66 °FScattered clouds.5 mph49%30.42 "HgN/A
11:00 AM64 °FScattered clouds.3 mph56%30.45 "HgN/A
10:00 AMN/A5 mphN/AN/AN/A
9:00 AM57 °FPassing clouds.7 mph77%30.48 "HgN/A
8:00 AM50 °FScattered clouds.2 mph94%30.45 "HgN/A
7:00 AM48 °FScattered clouds.2 mph94%30.42 "HgN/A
6:00 AM50 °FPassing clouds.2 mph94%30.42 "HgN/A
4:00 AM50 °FPassing clouds.2 mph94%30.39 "HgN/A
3:00 AM50 °FPassing clouds.2 mph94%30.39 "HgN/A
2:00 AM50 °FPassing clouds.No wind94%30.42 "HgN/A
1:00 AM50 °FPassing clouds.No wind94%30.45 "HgN/A
11:00 PM
Sat, Apr 18
50 °FPassing clouds.2 mph100%30.48 "HgN/A
10:00 PM52 °FPassing clouds.3 mph94%30.45 "HgN/A
9:00 PM52 °FPassing clouds.No wind94%30.42 "HgN/A
8:00 PM52 °FPassing clouds.2 mph94%30.42 "HgN/A
7:00 PM54 °FPassing clouds.3 mph88%30.39 "HgN/A
6:00 PM54 °FPartly sunny.6 mph88%30.36 "HgN/A
Weather by CustomWeather, © 2015

See weather overviewHow to use our weather pages